Regional Weather Roundup
Issued by NWS

Home | Current Version | Previous Version | Graphics & Text | Print | Product List | Glossary Off
Versions: 1 2 3 4 5 6 7 8 9 10 11 12 13 14 15 16 17 18 19 20 21 22 23 24 25 26 27 28 29 30 31 32 33 34 35 36 37 38 39 40 41 42 43 44 45 46 47 48 49 50

000
ASUS43 KDTX 281801
RWRMI
MICHIGAN HOURLY REGIONAL WEATHER ROUNDUP
NATIONAL WEATHER SERVICE DETROIT/PONTIAC MI
200 PM EDT THU JUL 28 2016

NOTE: "FAIR" INDICATES FEW OR NO CLOUDS BELOW 12,000 FEET WITH NO
SIGNIFICANT WEATHER AND/OR OBSTRUCTION TO VISIBILITY.

MIZ047>049-052>055-059>063-066>070-074>076-081>083-281900-
SOUTHEAST LOWER MICHIGAN

CITY           SKY/WX    TMP DP  RH WIND       PRES   REMARKS
ADRIAN         CLOUDY    85  66  53 E7        29.91F
6HR MIN TEMP:  68; 6HR MAX TEMP:  85;

ALMA           CLOUDY    79  66  64 E6        29.95F
ANN ARBOR      CLOUDY    83  65  54 NE6       29.91F
BAD AXE        MOSUNNY   78  58  49 N7        29.95F
CARO           MOSUNNY   80  62  53 NE3       29.93F
DETROIT CITY   CLOUDY    81  67  62 E7        29.91S
6HR MIN TEMP:  71; 6HR MAX TEMP:  82;

DETROIT        CLOUDY    85  64  49 NE7       29.91S
6HR MIN TEMP:  73; 6HR MAX TEMP:  85;

FLINT          MOSUNNY   86  62  44 NE8       29.93S
6HR MIN TEMP:  70; 6HR MAX TEMP:  87;

GROSSE ILE     CLOUDY    82  65  55 NE9       29.89F
6HR MIN TEMP:  73; 6HR MAX TEMP:  83;

HILLSDALE      MOSUNNY   81  67  63 E3        29.93S
6HR MIN TEMP:  59; 6HR MAX TEMP:  87;

HOWELL         MOSUNNY   81  61  50 NE6       29.93F
6HR MIN TEMP:  65; 6HR MAX TEMP:  82;


CITY           SKY/WX    TMP DP  RH WIND       PRES   REMARKS
JACKSON        PTSUNNY   82  65  56 CALM      29.92F
6HR MIN TEMP:  68; 6HR MAX TEMP:  82;

LAMBERTVILLE   CLOUDY    82  69  64 NE6       29.91S
6HR MIN TEMP:  71; 6HR MAX TEMP:  82;

LANSING        MOSUNNY   83  65  54 NE8       29.93F
6HR MIN TEMP:  67; 6HR MAX TEMP:  83;

LAPEER         FAIR      79  61  52 NE9       29.94F
6HR MIN TEMP:  66; 6HR MAX TEMP:  80;

MASON          CLOUDY    81  64  56 E6        29.93F
MONROE         CLOUDY    82  69  66 E5        29.89F
6HR MIN TEMP:  69; 6HR MAX TEMP:  82;

PONTIAC        CLOUDY    83  64  52 N9        29.92F
6HR MIN TEMP:  69; 6HR MAX TEMP:  83;

PORT HOPE        N/A     73  66  78 NE8       29.95S
6HR MIN TEMP:  72; 6HR MAX TEMP:  76;

PORT HURON     CLOUDY    77  64  65 N8        29.93F
TRI CITIES     MOSUNNY   79  65  62 NE9       29.95F
6HR MIN TEMP:  68; 6HR MAX TEMP:  79;

MIDLAND        FAIR      78  55  44 E9        29.95S
6HR MIN TEMP:  67; 6HR MAX TEMP:  79; 6HR PCP:  0.01;

TROY           CLOUDY    82  64  54 N6        29.94S
SAGINAW HB     PTSUNNY   81  61  50 NE9       29.94S
$$
MIZ043>046-050>051-056>058-064>065-071>073-077>080-281900-
SOUTHWEST LOWER MICHIGAN

CITY           SKY/WX    TMP DP  RH WIND       PRES   REMARKS
BATTLE CREEK   MOSUNNY   80  67  64 N9        29.93S
6HR MIN TEMP:  66; 6HR MAX TEMP:  81;

BENTON HARBOR  MOSUNNY   84  66  54 CALM      29.88F
6HR MIN TEMP:  69; 6HR MAX TEMP:  85;

BIG RAPIDS     SUNNY     78  65  63 E9        29.95S
6HR MIN TEMP:  66; 6HR MAX TEMP:  78;

COLDWATER      CLOUDY    80  68  67 NE6       29.93S
6HR MIN TEMP:  68; 6HR MAX TEMP:  80;

FREMONT        PTSUNNY   79  72  79 E8        29.93F
HOLLAND        MOSUNNY   84  69  60 E7        29.91F
6HR MIN TEMP:  68; 6HR MAX TEMP:  84;

GRAND RAPIDS   PTSUNNY   81  66  60 E8        29.92F
6HR MIN TEMP:  69; 6HR MAX TEMP:  81;

IONIA          FAIR      80  64  58 E7        29.92F
6HR MIN TEMP:  65; 6HR MAX TEMP:  80;

KALAMAZOO      CLOUDY    83  66  56 VRB7      29.91F
6HR MIN TEMP:  70; 6HR MAX TEMP:  84;

LUDINGTON      CLOUDY    77  65  66 NE5       29.93S
6HR MIN TEMP:  68; 6HR MAX TEMP:  77;

MARSHALL       CLOUDY    82  67  59 CALM      29.92S
6HR MIN TEMP:  67; 6HR MAX TEMP:  82;

MOUNT PLEASANT CLOUDY    80  59  50 E6        29.94F
6HR MIN TEMP:  67; 6HR MAX TEMP:  80;

MUSKEGON       PTSUNNY   84  68  58 E7        29.91F
6HR MIN TEMP:  71; 6HR MAX TEMP:  86;

SOUTH HAVEN    MOSUNNY   83  67  58 NE3       29.90F
$$
MIZ016>042-281900-
NORTHERN LOWER MICHIGAN

CITY           SKY/WX    TMP DP  RH WIND       PRES   REMARKS
ALPENA         PTSUNNY   78  58  49 CALM      29.98S
6HR MIN TEMP:  62; 6HR MAX TEMP:  78; 6HR PCP:  0.01;

BEAVER ISLAND  SUNNY     75  61  63 NE7       30.00F
6HR MIN TEMP:  61; 6HR MAX TEMP:  75;

BELLAIRE       MOSUNNY   76  58  52 N6        29.97F
6HR MIN TEMP:  63; 6HR MAX TEMP:  76;

CADILLAC       CLOUDY    73  61  64 NE7       29.98S
CHARLEVOIX     SUNNY     71  59  65 N10       30.02S
6HR MIN TEMP:  63; 6HR MAX TEMP:  72;

FRANKFORT      CLOUDY    74  60  62 NE6       29.98S
GAYLORD        SUNNY     73  55  53 NE7       30.00F
6HR MIN TEMP:  61; 6HR MAX TEMP:  73; 6HR PCP: TRACE;

GRAYLING       MOSUNNY   80  58  47 NE7       29.99F
6HR MIN TEMP:  62; 6HR MAX TEMP:  80;

HARBOR SPRINGS SUNNY     73  60  65 SW8       29.99S
HOUGHTON LAKE  CLOUDY    75  60  59 VRB6      29.99F
6HR MIN TEMP:  62; 6HR MAX TEMP:  76; 6HR PCP: TRACE;

MANISTEE       CLOUDY    74  61  63 NE8       29.95F HAZE
OSCODA         CLOUDY    74  62  65 NE6       29.97S
6HR MIN TEMP:  65; 6HR MAX TEMP:  74;

PELLSTON       PTSUNNY   78  56  46 NE10      29.99S
6HR MIN TEMP:  60; 6HR MAX TEMP:  78; 6HR PCP:  0.01;

ROGERS CITY    SUNNY     70  61  72 N7        30.01R
TRAVERSE CITY  CLOUDY    75  58  55 N9        29.97S
6HR MIN TEMP:  65; 6HR MAX TEMP:  77; 6HR PCP:  0.01;

$$
MIZ007>008-015-281900-
EASTERN UPPER MICHIGAN

CITY           SKY/WX    TMP DP  RH WIND       PRES   REMARKS
KINROSS        CLOUDY    74  55  51 N6        30.01S
6HR MIN TEMP:  62; 6HR MAX TEMP:  76;

MACKINAC ISLAN SUNNY     72  59  62 NE5       30.00S
6HR MIN TEMP:  60; 6HR MAX TEMP:  73;

S. S. MARIE    PTSUNNY   78  54  43 CALM      29.99S
6HR MIN TEMP:  65; 6HR MAX TEMP:  79;

$$
MIZ004>006-011>014-085-281900-
CENTRAL UPPER MICHIGAN

CITY           SKY/WX    TMP DP  RH WIND       PRES   REMARKS
ESCANABA       SUNNY     75  59  57 NE8       30.00S
6HR MIN TEMP:  59; 6HR MAX TEMP:  75;

MENOMINEE      CLOUDY   N/A N/A N/A E6        30.02S
SAWYER-GWINN   SUNNY     68  57  68 N15G21    30.06S
$$
MIZ001>003-009>011-084-281900-
WESTERN UPPER MICHIGAN

CITY           SKY/WX    TMP DP  RH WIND       PRES   REMARKS
IRON MOUNTAIN  PTSUNNY   76  55  48 NE12      30.02S
6HR MIN TEMP:  60; 6HR MAX TEMP:  77;

HOUGHTON       MOSUNNY   70  52  52 E13       30.09S
6HR MIN TEMP:  61; 6HR MAX TEMP:  72;

COPPER HARBOR    N/A     64  56  75 E6        30.10F
6HR MIN TEMP:  61; 6HR MAX TEMP:  65;

IRONWOOD       CLOUDY    70  61  73 N8        30.05S
6HR MIN TEMP:  59; 6HR MAX TEMP:  73;

$$

ABBREVIATIONS USED IN REMARKS
   TC - TEMPERATURE IN CELSIUS
  WCI - WIND CHILL INDEX
   HX - HEAT INDEX
  VSB - VISIBILITY




USA.gov is the U.S. government's official web portal to all federal, state and local government web resources and services.